Location: Limerick
(52.6650°N, 8.6230°W)
Time: 21:45:06
(UTC+00:00)

ISS - Pass Details

Date: 22 March 2017
Orbit: 399 x 409 km, 51.6° (Epoch: 26 March)

Event Time Altitude Azimuth Distance (km) Brightness Sun altitude
Exits shadow 04:19:36 15° 151° (SSE) 1,201 -1.5 -20.0°
Drops below altitude 10° 04:20:22 10° 143° (SE) 1,471 -0.9 -19.9°
Sets 04:22:34 0° 133° (SE) 2,331 0.3 -19.6°
